Location: Unspecified
(49.2170°N, 0.0000°E)
Time: 07:38:50
(UTC+00:00)

Vanguard 3 - Pass Details

Date: 02 July 2019
Orbit: 507 x 3264 km, 33.4° (Epoch: 17 July)

Event Time Altitude Azimuth Distance (km) Brightness Sun altitude
Rises 12:49:21 0° 268° (W) 6,578 11.9 62.3°
Reaches altitude 10° 12:55:11 10° 258° (WSW) 5,122 11.6 61.9°
Maximum altitude 13:05:20 25° 211° (SSW) 3,081 11.1 61.2°
Drops below altitude 10° 13:12:12 10° 160° (SSE) 3,342 10.7 60.6°
Sets 13:15:06 0° 147° (SSE) 3,959 10.8 60.3°
